ARIANE 42P DEB, 44508

Orbit data source: Space-Track

ARIANE 42P DEB, 44508 is space debris in LEO originally from a launch on Mon, 10 Aug 1992 UTC launched from the French Guiana (FRGUI). Debris objects in space refer to the collection of defunct objects orbiting the Earth. Examples of debris include non-operational satellites, rocket bodies, and fragments generated from explosions, collisions, or faulty payload assembly.

Loading next visibility...
ARIANE 42P DEB details
Identifier
44508, 1992-052F
Orbit
LEO
Last TLE update8 hours ago
Origin
Flag of FRArianespace (FR)
ManufacturerArianeGroup
MissionSpacecraft
Bus & MotorUnknown
MassUnknown
Launch date (UTC)
1992-08-10 (32 years ago)
Launch vehicleUnknown
Launch site
French Guiana (FRGUI)
Object type
Payload
Rocket body
Debris
Shape & HBRUnknown
Radar Cross SectionSmall (<0.1 m²)

Expand to show TLE details & history

TLE from 8 hours ago
0 ARIANE 42P DEB
1 44508U 92052F   24361.09874792 -.00004796  00000-0 -17762-1 0  9993
2 44508  66.0400  41.0742 0373330 162.7042 198.7096 12.71107791248457
Epoch: 2024-12-26T02:22Z
Definitive object data (Epoch: 2024-12-26T02:22:11.82Z)
Latitude-0.00003°
Longitude-89.55808°
Altitude1,654.657 km
Speed6.92 km/s
True Right ascension02h 44m 17s
True Declination0° 00' 00"
Sunlit
Object was in daylight at TLE epoch
Visualization TLE readout
Latitude38.32718°
Longitude-69.75931°
Altitude1,518.013 km
Speed7.047 km/s
Apparent Right ascension01h 17m 56s
Apparent Declination6° 15' 39"
Sunlit
Object is in full shadow
Visualization observer readout
Local Sidereal Time09:30:41
Azimuth297.484° NW
Elevation-20.325°
Doppler factor1
Orbital elements
Apogee altitude1,665.483 km
Perigee altitude1,086.513 km
Semi-major axis7,754.135 km
Eccentricity0.037333
Inclination66.04°
RAAN41.0742°
Arg. of periapsis162.7042°
True anomaly197.39562°
Mean anomaly198.7096°
Eccentric anomaly198.04694°
Mean motion3.17865 °/min
BSTAR-0.017762
Orbital period113.26 mins
Loading maneuver chart data...
Loading historical data...
Loading historical data...
Loading historical data...
Loading historical data...
Loading historical data...
Loading historical data...
Loading historical data...

ARIANE 42P DEB Visibility forecast

Observer location: undefined°, undefined

Span
Click to sort rows by Start time (UTC) header in descending order
Start Az.
Max El. time (UTC)
Max El. Az.
Max El.
End time (UTC)
End Az.
11 mins2024-12-26 12:22:32.751Z345.992° N2024-12-26 12:28:32.751Z44.802° NE27.121°2024-12-26 12:33:32.751Z99.964° ESE
11 mins2024-12-26 14:20:32.751Z317.134° NNW2024-12-26 14:25:32.751Z248.752° W39.325°2024-12-26 14:31:32.751Z172.774° S
13 mins2024-12-27 03:01:32.751Z154.415° SSE2024-12-27 03:07:32.751Z106.959° ESE26.332°2024-12-27 03:14:32.751Z51.785° ENE
15 mins2024-12-27 04:56:32.751Z222.179° SW2024-12-27 05:03:32.751Z284.769° WNW42.828°2024-12-27 05:11:32.751Z24.953° NE
10 mins2024-12-27 06:57:32.751Z287.268° WNW2024-12-27 07:02:32.751Z326.002° NNW18.987°2024-12-27 07:07:32.751Z6.194° NNE
|